Location: London
(51.5074°N, 0.1278°W)
Time: 22:21:21
(UTC+01:00)

DELFI C3 - Pass Details

Date: 04 October 2020
Orbit: 535 x 549 km, 97.4° (Epoch: 22 October)

Event Time Altitude Azimuth Distance (km) Brightness Sun altitude
Exits shadow 19:33:59 15° 105° (ESE) 1,519 ? -10.7°
Maximum altitude 19:36:06 23° 63° (ENE) 1,203 ? -11.0°
Drops below altitude 10° 19:39:14 10° 11° (N) 1,833 ? -11.5°
Sets 19:41:41 0° 357° (N) 2,734 ? -11.9°
